| time (UTC) | temp C | wind direction | speed KPH | gust KPH | rain 1hr cm | rain 24hr cm | rain mn cm | humidity % | barometer mb |
| 20260504081933 | 7 | 46 | 0.0 | 33.8 | 0.00 | 0.00 | 0.00 | 10 | 1016.9 |
| 20260504081430 | 7 | 45 | 0.0 | 0.0 | 0.00 | 0.00 | 0.00 | 10 | 1016.9 |
| 20260504080926 | 7 | 61 | 0.0 | 25.7 | 0.00 | 0.00 | 0.00 | 10 | 1016.6 |
| 20260504080423 | 7 | 68 | 0.0 | 0.0 | 0.00 | 0.00 | 0.00 | 10 | 1016.7 |
| 20260504070350 | 9 | 44 | 0.0 | 3.2 | 0.00 | 0.00 | 0.00 | 10 | 1015.3 |
| 20260504050738 | 11 | 49 | 0.0 | 1.6 | 0.00 | 0.00 | 0.00 | 10 | 1013.1 |
| 20260504050235 | 11 | 59 | 0.0 | 0.0 | 0.00 | 0.00 | 0.00 | 10 | 1012.7 |
| 20260504045732 | 12 | 53 | 3.2 | 20.9 | 0.00 | 0.00 | 0.00 | 10 | 1012.6 |
| 20260504045227 | 12 | 68 | 0.0 | 1.6 | 0.00 | 0.00 | 0.00 | 10 | 1012.7 |
| 20260504044725 | 12 | 49 | 0.0 | 0.0 | 0.00 | 0.00 | 0.00 | 10 | 1013.0 |
| 20260504044222 | 12 | 51 | 3.2 | 22.5 | 0.00 | 0.00 | 0.00 | 10 | 1012.5 |
| 20260504043720 | 12 | 71 | 0.0 | 1.6 | 0.00 | 0.00 | 0.00 | 10 | 1012.4 |
| 20260504043216 | 12 | 47 | 1.6 | 25.7 | 0.00 | 0.00 | 0.00 | 10 | 1012.2 |
| 20260504042714 | 13 | 54 | 0.0 | 32.2 | 0.00 | 0.00 | 0.00 | 10 | 1012.3 |
| 20260504042210 | 13 | 37 | 0.0 | 3.2 | 0.00 | 0.00 | 0.00 | 10 | 1011.9 |
| 20260504041706 | 12 | 40 | 0.0 | 0.0 | 0.00 | 0.00 | 0.00 | 10 | 1011.5 |
| 20260504041202 | 12 | 38 | 0.0 | 0.0 | 0.00 | 0.00 | 0.00 | 10 | 1011.4 |
| 20260504040659 | 12 | 34 | 0.0 | 0.0 | 0.00 | 0.00 | 0.00 | 10 | 1011.3 |
| 20260504040156 | 12 | 29 | 0.0 | 0.0 | 0.00 | 0.00 | 0.00 | 10 | 1011.2 |
| 20260504035652 | 12 | 44 | 0.0 | 0.0 | 0.00 | 0.00 | 0.00 | 10 | 1011.1 |
| 20260504035150 | 12 | 39 | 0.0 | 0.0 | 0.00 | 0.00 | 0.00 | 10 | 1010.8 |
| 20260504034647 | 12 | 41 | 0.0 | 0.0 | 0.00 | 0.00 | 0.00 | 10 | 1010.7 |
| 20260504034144 | 12 | 36 | 0.0 | 0.0 | 0.00 | 0.00 | 0.00 | 10 | 1010.4 |
| 20260504033642 | 13 | 33 | 0.0 | 0.0 | 0.00 | 0.00 | 0.00 | 10 | 1010.1 |
| 20260504033139 | 13 | 46 | 0.0 | 0.0 | 0.00 | 0.00 | 0.00 | 10 | 1010.3 |
| 20260504032635 | 13 | 38 | 0.0 | 0.0 | 0.00 | 0.00 | 0.00 | 10 | 1010.2 |
| 20260504032132 | 13 | 43 | 0.0 | 0.0 | 0.00 | 0.00 | 0.00 | 10 | 1010.3 |
| 20260504031630 | 13 | 58 | 0.0 | 0.0 | 0.00 | 0.00 | 0.00 | 10 | 1010.1 |
| 20260504031126 | 14 | 40 | 0.0 | 0.0 | 0.00 | 0.00 | 0.00 | 10 | 1010.1 |
| 20260504030623 | 14 | 45 | 0.0 | 0.0 | 0.00 | 0.00 | 0.00 | 10 | 1009.9 |
| 20260504030119 | 15 | 48 | 0.0 | 0.0 | 0.00 | 0.00 | 0.00 | 10 | 1009.9 |
| 20260504025616 | 15 | 46 | 0.0 | 0.0 | 0.00 | 0.00 | 0.00 | 10 | 1009.7 |
| 20260504025113 | 15 | 43 | 0.0 | 0.0 | 0.00 | 0.00 | 0.00 | 10 | 1009.8 |
| 20260504024611 | 15 | 52 | 0.0 | 0.0 | 0.00 | 0.00 | 0.00 | 10 | 1009.6 |
| 20260504024107 | 16 | 53 | 0.0 | 1.6 | 0.00 | 0.00 | 0.00 | 10 | 1009.7 |
| 20260504023603 | 16 | 52 | 0.0 | 0.0 | 0.00 | 0.00 | 0.00 | 10 | 1009.7 |
| 20260504023059 | 16 | 37 | 0.0 | 0.0 | 0.00 | 0.00 | 0.00 | 10 | 1009.7 |
| 20260504022556 | 17 | 54 | 3.2 | 17.7 | 0.00 | 0.00 | 0.00 | 10 | 1009.4 |
| 20260504022052 | 17 | 41 | 1.6 | 3.2 | 0.00 | 0.00 | 0.00 | 10 | 1009.8 |
| 20260504021550 | 17 | 44 | 0.0 | 0.0 | 0.00 | 0.00 | 0.00 | 10 | 1009.6 |
| 20260504021046 | 17 | 42 | 0.0 | 0.0 | 0.00 | 0.00 | 0.00 | 10 | 1009.1 |
| 20260504020543 | 18 | 37 | 0.0 | 0.0 | 0.00 | 0.00 | 0.00 | 10 | 1009.3 |
| 20260504020040 | 18 | 26 | 0.0 | 0.0 | 0.00 | 0.00 | 0.00 | 10 | 1009.4 |
| 20260504015536 | 18 | 42 | 0.0 | 3.2 | 0.00 | 0.00 | 0.00 | 10 | 1009.6 |
| 20260504015032 | 19 | 39 | 0.0 | 0.0 | 0.00 | 0.00 | 0.00 | 10 | 1009.3 |
| 20260504014529 | 20 | 41 | 0.0 | 0.0 | 0.00 | 0.00 | 0.00 | 10 | 1009.2 |
| 20260504014026 | 20 | 26 | 0.0 | 0.0 | 0.00 | 0.00 | 0.00 | 10 | 1009.3 |
| 20260504013524 | 20 | 16 | 0.0 | 0.0 | 0.00 | 0.00 | 0.00 | 10 | 1009.6 |
| 20260504013020 | 21 | 20 | 0.0 | 1.6 | 0.00 | 0.00 | 0.00 | 10 | 1009.2 |
| 20260504012518 | 21 | 12 | 0.0 | 0.0 | 0.00 | 0.00 | 0.00 | 10 | 1009.3 |
| 20260504012016 | 21 | 2 | 0.0 | 0.0 | 0.00 | 0.00 | 0.00 | 10 | 1009.3 |
| 20260504011512 | 21 | 3 | 1.6 | 3.2 | 0.00 | 0.00 | 0.00 | 10 | 1009.2 |
| 20260504011008 | 21 | 33 | 1.6 | 3.2 | 0.00 | 0.00 | 0.00 | 10 | 1009.3 |
| 20260504010504 | 21 | 13 | 0.0 | 3.2 | 0.00 | 0.00 | 0.00 | 10 | 1009.3 |
| 20260504010000 | 21 | 349 | 0.0 | 3.2 | 0.00 | 0.00 | 0.00 | 10 | 1009.1 |
| 20260504005457 | 21 | 11 | 1.6 | 4.8 | 0.00 | 0.00 | 0.00 | 10 | 1009.3 |
| 20260504004954 | 21 | 1 | 1.6 | 3.2 | 0.00 | 0.00 | 0.00 | 10 | 1009.4 |
| 20260504004452 | 21 | 17 | 0.0 | 3.2 | 0.00 | 0.00 | 0.00 | 10 | 1009.4 |
| 20260504003949 | 21 | 14 | 0.0 | 0.0 | 0.00 | 0.00 | 0.00 | 10 | 1009.4 |
| 20260504003445 | 22 | 20 | 1.6 | 4.8 | 0.00 | 0.00 | 0.00 | 10 | 1009.4 |
| 20260504002942 | 21 | 359 | 0.0 | 1.6 | 0.00 | 0.00 | 0.00 | 10 | 1009.6 |
| 20260504002439 | 21 | 359 | 0.0 | 0.0 | 0.00 | 0.00 | 0.00 | 10 | 1009.7 |
| 20260504001936 | 21 | 23 | 1.6 | 3.2 | 0.00 | 0.00 | 0.00 | 10 | 1009.6 |
| 20260504001433 | 21 | 6 | 0.0 | 1.6 | 0.00 | 0.00 | 0.00 | 10 | 1009.6 |
| 20260504000930 | 22 | 4 | 0.0 | 0.0 | 0.00 | 0.00 | 0.00 | 10 | 1009.8 |
| 20260504000427 | 22 | 2 | 1.6 | 3.2 | 0.00 | 0.00 | 0.00 | 10 | 1009.8 |
| 20260503235924 | 22 | 358 | 0.0 | 22.5 | 0.00 | 0.00 | 0.00 | 10 | 1009.8 |
| 20260503235422 | 21 | 21 | 0.0 | 0.0 | 0.00 | 0.00 | 0.00 | 10 | 1009.9 |
| 20260503234919 | 21 | 28 | 1.6 | 3.2 | 0.00 | 0.00 | 0.00 | 10 | 1010.0 |
| 20260503234417 | 22 | 359 | 3.2 | 4.8 | 0.00 | 0.00 | 0.00 | 10 | 1009.8 |
| 20260503233914 | 22 | 333 | 1.6 | 4.8 | 0.00 | 0.00 | 0.00 | 10 | 1009.9 |
| 20260503233411 | 22 | 31 | 0.0 | 0.0 | 0.00 | 0.00 | 0.00 | 10 | 1009.9 |
| 20260503232907 | 22 | 353 | 1.6 | 3.2 | 0.00 | 0.00 | 0.00 | 10 | 1009.8 |
| 20260503232405 | 22 | 21 | 0.0 | 0.0 | 0.00 | 0.00 | 0.00 | 10 | 1009.9 |
| 20260503231902 | 22 | 8 | 0.0 | 3.2 | 0.00 | 0.00 | 0.00 | 10 | 1009.8 |
| 20260503231359 | 22 | 336 | 1.6 | 4.8 | 0.00 | 0.00 | 0.00 | 10 | 1009.8 |
| 20260503230855 | 22 | 353 | 1.6 | 3.2 | 0.00 | 0.00 | 0.00 | 10 | 1010.0 |
| 20260503230352 | 22 | 357 | 0.0 | 3.2 | 0.00 | 0.00 | 0.00 | 10 | 1010.0 |
| 20260503225850 | 21 | 21 | 0.0 | 0.0 | 0.00 | 0.00 | 0.00 | 10 | 1010.1 |
| 20260503225345 | 22 | 355 | 1.6 | 3.2 | 0.00 | 0.00 | 0.00 | 10 | 1010.0 |
| 20260503224842 | 22 | 359 | 0.0 | 3.2 | 0.00 | 0.00 | 0.00 | 10 | 1010.3 |
| 20260503224339 | 22 | 23 | 0.0 | 3.2 | 0.00 | 0.00 | 0.00 | 10 | 1010.2 |
| 20260503223837 | 22 | 16 | 0.0 | 1.6 | 0.00 | 0.00 | 0.00 | 10 | 1010.1 |
| 20260503223334 | 22 | 1 | 0.0 | 3.2 | 0.00 | 0.00 | 0.00 | 10 | 1010.3 |
| 20260503222830 | 22 | 17 | 0.0 | 0.0 | 0.00 | 0.00 | 0.00 | 10 | 1010.1 |
| 20260503222329 | 22 | 36 | 0.0 | 1.6 | 0.00 | 0.00 | 0.00 | 10 | 1010.2 |
| 20260503221826 | 22 | 357 | 1.6 | 8.0 | 0.00 | 0.00 | 0.00 | 10 | 1010.3 |
| 20260503221325 | 22 | 10 | 0.0 | 0.0 | 0.00 | 0.00 | 0.00 | 10 | 1010.4 |
| 20260503220820 | 22 | 353 | 0.0 | 0.0 | 0.00 | 0.00 | 0.00 | 10 | 1010.3 |
| 20260503220318 | 22 | 19 | 0.0 | 3.2 | 0.00 | 0.00 | 0.00 | 10 | 1010.2 |
| 20260503215814 | 22 | 343 | 4.8 | 11.3 | 0.00 | 0.00 | 0.00 | 10 | 1010.5 |
| 20260503215312 | 22 | 358 | 0.0 | 1.6 | 0.00 | 0.00 | 0.00 | 10 | 1010.5 |
| 20260503214809 | 22 | 24 | 3.2 | 4.8 | 0.00 | 0.00 | 0.00 | 10 | 1010.7 |
| 20260503214306 | 22 | 6 | 0.0 | 4.8 | 0.00 | 0.00 | 0.00 | 10 | 1010.5 |
| 20260503213804 | 21 | 15 | 0.0 | 1.6 | 0.00 | 0.00 | 0.00 | 10 | 1011.0 |
| 20260503213301 | 22 | 20 | 1.6 | 4.8 | 0.00 | 0.00 | 0.00 | 10 | 1010.8 |
| 20260503212758 | 22 | 7 | 0.0 | 1.6 | 0.00 | 0.00 | 0.00 | 10 | 1010.8 |
| 20260503212256 | 21 | 6 | 0.0 | 0.0 | 0.00 | 0.00 | 0.00 | 10 | 1011.0 |
| 20260503211753 | 21 | 2 | 0.0 | 1.6 | 0.00 | 0.00 | 0.00 | 10 | 1011.0 |
| 20260503211249 | 21 | 3 | 1.6 | 3.2 | 0.00 | 0.00 | 0.00 | 10 | 1011.0 |
| 20260503210744 | 21 | 357 | 1.6 | 4.8 | 0.00 | 0.00 | 0.00 | 10 | 1011.1 |
| 20260503210242 | 22 | 340 | 0.0 | 3.2 | 0.00 | 0.00 | 0.00 | 10 | 1011.3 |
| 20260503205742 | 21 | 28 | 3.2 | 4.8 | 0.00 | 0.00 | 0.00 | 10 | 1011.4 |
| 20260503205239 | 21 | 23 | 1.6 | 3.2 | 0.00 | 0.00 | 0.00 | 10 | 1011.4 |
| 20260503204735 | 22 | 21 | 0.0 | 1.6 | 0.00 | 0.00 | 0.00 | 10 | 1011.5 |
| 20260503204233 | 21 | 9 | 1.6 | 3.2 | 0.00 | 0.00 | 0.00 | 10 | 1011.5 |
| 20260503203730 | 21 | 14 | 0.0 | 0.0 | 0.00 | 0.00 | 0.00 | 10 | 1011.6 |
| 20260503203228 | 21 | 32 | 0.0 | 0.0 | 0.00 | 0.00 | 0.00 | 10 | 1011.8 |
| 20260503202725 | 21 | 27 | 0.0 | 1.6 | 0.00 | 0.00 | 0.00 | 10 | 1011.6 |
| 20260503202223 | 21 | 20 | 0.0 | 1.6 | 0.00 | 0.00 | 0.00 | 10 | 1011.8 |
| 20260503201720 | 21 | 4 | 1.6 | 4.8 | 0.00 | 0.00 | 0.00 | 10 | 1011.6 |
| 20260503201218 | 21 | 8 | 0.0 | 3.2 | 0.00 | 0.00 | 0.00 | 10 | 1012.0 |
| 20260503200714 | 20 | 0 | 0.0 | 3.2 | 0.00 | 0.00 | 0.00 | 10 | 1012.0 |
| 20260503200210 | 21 | 5 | 0.0 | 0.0 | 0.00 | 0.00 | 0.00 | 10 | 1012.1 |
| 20260503195707 | 21 | 331 | 3.2 | 4.8 | 0.00 | 0.00 | 0.00 | 10 | 1012.2 |
| 20260503195204 | 20 | 340 | 3.2 | 8.0 | 0.00 | 0.00 | 0.00 | 10 | 1012.0 |
| 20260503194701 | 20 | 310 | 0.0 | 1.6 | 0.00 | 0.00 | 0.00 | 10 | 1012.3 |
| 20260503194156 | 20 | 348 | 0.0 | 1.6 | 0.00 | 0.00 | 0.00 | 10 | 1012.2 |
| 20260503193653 | 20 | 17 | 0.0 | 1.6 | 0.00 | 0.00 | 0.00 | 10 | 1012.4 |
| 20260503193149 | 20 | 14 | 0.0 | 16.1 | 0.00 | 0.00 | 0.00 | 10 | 1012.5 |
| 20260503192645 | 21 | 359 | 0.0 | 3.2 | 0.00 | 0.00 | 0.00 | 10 | 1012.5 |
| 20260503192141 | 20 | 28 | 0.0 | 0.0 | 0.00 | 0.00 | 0.00 | 10 | 1012.6 |
| 20260503191638 | 21 | 4 | 0.0 | 1.6 | 0.00 | 0.00 | 0.00 | 10 | 1012.6 |
| 20260503191135 | 21 | 341 | 1.6 | 3.2 | 0.00 | 0.00 | 0.00 | 10 | 1012.6 |
| 20260503190632 | 20 | 36 | 0.0 | 1.6 | 0.00 | 0.00 | 0.00 | 10 | 1012.6 |
| 20260503190128 | 20 | 45 | 0.0 | 1.6 | 0.00 | 0.00 | 0.00 | 10 | 1012.7 |
| 20260503185625 | 20 | 338 | 0.0 | 3.2 | 0.00 | 0.00 | 0.00 | 10 | 1012.7 |
| 20260503185120 | 20 | 346 | 0.0 | 0.0 | 0.00 | 0.00 | 0.00 | 10 | 1013.0 |
| 20260503184615 | 20 | 310 | 1.6 | 4.8 | 0.00 | 0.00 | 0.00 | 10 | 1013.1 |
| 20260503184112 | 20 | 358 | 3.2 | 4.8 | 0.00 | 0.00 | 0.00 | 10 | 1013.0 |
| 20260503183609 | 20 | 7 | 1.6 | 9.7 | 0.00 | 0.00 | 0.00 | 10 | 1013.1 |
| 20260503183106 | 20 | 317 | 1.6 | 4.8 | 0.00 | 0.00 | 0.00 | 10 | 1013.2 |
| 20260503182605 | 20 | 6 | 1.6 | 3.2 | 0.00 | 0.00 | 0.00 | 10 | 1013.2 |
| 20260503182102 | 20 | 20 | 0.0 | 0.0 | 0.00 | 0.00 | 0.00 | 10 | 1013.3 |
| 20260503181559 | 19 | 354 | 0.0 | 1.6 | 0.00 | 0.00 | 0.00 | 10 | 1013.3 |
| 20260503181055 | 20 | 2 | 0.0 | 0.0 | 0.00 | 0.00 | 0.00 | 10 | 1013.4 |
| 20260503180553 | 20 | 350 | 0.0 | 3.2 | 0.00 | 0.00 | 0.00 | 10 | 1013.4 |
| 20260503180050 | 20 | 352 | 0.0 | 1.6 | 0.00 | 0.00 | 0.00 | 10 | 1013.3 |
| 20260503175547 | 20 | 9 | 0.0 | 0.0 | 0.00 | 0.00 | 0.00 | 10 | 1013.5 |
| 20260503175044 | 20 | 30 | 0.0 | 0.0 | 0.00 | 0.00 | 0.00 | 10 | 1013.6 |
| 20260503174542 | 20 | 2 | 0.0 | 1.6 | 0.00 | 0.00 | 0.00 | 10 | 1013.4 |
| 20260503174038 | 20 | 35 | 0.0 | 4.8 | 0.00 | 0.00 | 0.00 | 10 | 1013.7 |
| 20260503173533 | 20 | 12 | 0.0 | 0.0 | 0.00 | 0.00 | 0.00 | 10 | 1013.7 |
| 20260503173029 | 20 | 12 | 0.0 | 4.8 | 0.00 | 0.00 | 0.00 | 10 | 1013.9 |
| 20260503172527 | 20 | 356 | 1.6 | 3.2 | 0.00 | 0.00 | 0.00 | 10 | 1013.9 |
| 20260503172024 | 20 | 24 | 0.0 | 0.0 | 0.00 | 0.00 | 0.00 | 10 | 1013.9 |
| 20260503171520 | 20 | 29 | 0.0 | 3.2 | 0.00 | 0.00 | 0.00 | 10 | 1013.7 |
| 20260503171018 | 20 | 22 | 0.0 | 0.0 | 0.00 | 0.00 | 0.00 | 10 | 1014.0 |
| 20260503170514 | 19 | 19 | 0.0 | 1.6 | 0.00 | 0.00 | 0.00 | 10 | 1013.9 |
| 20260503150906 | 17 | 30 | 0.0 | 0.0 | 0.00 | 0.00 | 0.00 | 10 | 1014.2 |
| 20260503150403 | 17 | 21 | 0.0 | 0.0 | 0.00 | 0.00 | 0.00 | 10 | 1014.4 |
| 20260503131256 | 11 | 303 | 0.0 | 0.0 | 0.00 | 0.00 | 0.00 | 10 | 1014.6 |
| 20260503130754 | 10 | 294 | 0.0 | 1.6 | 0.00 | 0.00 | 0.00 | 10 | 1014.6 |
| 20260503130251 | 10 | 299 | 0.0 | 3.2 | 0.00 | 0.00 | 0.00 | 10 | 1014.6 |
| 20260503120217 | 6 | 314 | 0.0 | 0.0 | 0.00 | 0.00 | 0.00 | 10 | 1015.1 |
| 20260503110644 | 7 | 302 | 0.0 | 0.0 | 0.00 | 0.00 | 0.00 | 10 | 1015.4 |
| 20260503110142 | 7 | 309 | 0.0 | 0.0 | 0.00 | 0.00 | 0.00 | 10 | 1015.4 |
| 20260503100109 | 5 | 293 | 0.0 | 0.0 | 0.00 | 0.00 | 0.00 | 10 | 1015.9 |